Regional Weather Roundup
Issued by NWS

Home | Current Version | Previous Version | Text Only | Print | Product List | Glossary Off
Versions: 1 2 3 4 5 6 7 8 9 10 11 12 13 14 15 16 17 18 19 20 21 22 23 24 25 26 27

000
ASUS45 KBOU 282207
RWRCO

WEATHER ROUNDUP FOR COLORADO
NATIONAL WEATHER SERVICE DENVER/BOULDER CO
400 PM MDT THU APR 28 2016

NOTE: "FAIR" INDICATES FEW OR NO CLOUDS BELOW 12000 FEET WITH NO
SIGNIFICANT WEATHER AND/OR OBSTRUCTIONS TO VISIBILITY.

COZ001>005-013-030-031-282300-
...NORTHWEST COLORADO...

CITY           SKY/WX    TMP DP  RH WIND       PRES   REMARKS
CRAIG          CLOUDY    46  38  73 SW15      29.83R THUNDER
HAYDEN         FAIR      46  34  61 N3        29.79F
MEEKER         CLOUDY    40  35  83 NE8G23    29.79F
MOUNT WERNER   NOT AVBL
STEAMBOAT SPGS FAIR      47  36  66 W6        29.78F
WALDEN         CLOUDY    36  30  80 W9        29.87S
$$

COZ006>008-011-282300-
...WEST CENTRAL VALLEYS...

CITY           SKY/WX    TMP DP  RH WIND       PRES   REMARKS
GRAND JUNCTION FAIR      54  39  57 NW14      29.74F
MONTROSE       CLOUDY    54  37  52 W10       29.77R
EAGLE          PTSUNNY   50  34  53 CALM      29.77F
RIFLE          FAIR      51  36  56 NW12      29.77S
DELTA          NOT AVBL
NUCLA          NOT AVBL
$$

COZ017>023-064>068-282300-
...SOUTHWEST COLORADO...

CITY           SKY/WX    TMP DP  RH WIND       PRES   REMARKS
DURANGO        CLOUDY    56  18  22 S10       29.71F
CORTEZ         PTSUNNY   53  28  38 W16       29.75R
PAGOSA SPRINGS CLOUDY    55   9  15 S17G25    29.78F
TELLURIDE      CLOUDY    37  30  76 CALM      29.86R
WOLF CREEK PAS NOT AVBL
$$

COZ009-010-012-014-032>034-037-058>063-282300-
...CENTRAL COLORADO...

CITY           SKY/WX    TMP DP  RH WIND       PRES   REMARKS
ASPEN          PTSUNNY   46  32  58 N8        29.76S
BUENA VISTA    CLOUDY    36  30  80 SE9       29.89S
COPPER MTN     NOT AVBL
BERTHOUD PASS  SNOW      19  10  68 SE10      29.95S VSB<1/4 WCI   8
COTTONWOOD PAS CLOUDY    34  32  93 E5        29.91S WCI  30
GUNNISON       FAIR      55  14  19 S16G26    29.78S
KREMMLING      FAIR      45  34  65 N3        29.84F
LEADVILLE      FAIR      33  28  81 S20       29.85F WCI  21
MONARCH PASS   HVY SNOW  23  21  93 E16G22    30.04R VSB<1/4 WCI  10
SALIDA         FAIR      39  30  70 SE20G29   29.96F
SUNLIGHT       CLOUDY    32  32 100 CALM      29.91S FOG
WILKERSON PASS PTSUNNY   32  28  86 S5        29.98R WCI  27
$$

COZ069>075-282300-
...SAN LUIS VALLEY/SANGRE DE CRISTO MOUNTAINS...

CITY           SKY/WX    TMP DP  RH WIND       PRES   REMARKS
ALAMOSA        PTSUNNY   52  26  36 S16G35    29.80F
LA VETA PASS   NOT AVBL
SAGUACHE       FAIR      55  19  24 W16G23    29.81F
$$

COZ035-036-038>040-282300-
...NORTHERN COLORADO FRONT RANGE...

CITY           SKY/WX    TMP DP  RH WIND       PRES   REMARKS
DENVER INTL AP CLOUDY    38  30  73 E13       29.97S
DMNS CITY PARK   N/A     39  32  76 MISG      29.97S
AURORA         CLOUDY    37  34  89 E10       29.97S
FRONT RANGE AP CLOUDY    37  32  81 E14G22    29.98F
ERIE MUNI ARPT CLOUDY    39  35  84 E5        29.98F
BOULDER MUN AP LGT RAIN  36  36 100 CALM      29.97F
CENTENNIAL     DRIZZLE   39  32  76 SW7       29.95F
BROOMFIELD     CLOUDY    37  36  93 E5        29.98F
FORT COLLINS   CLOUDY    39  34  81 SE7       30.00F
LONGMONT       LGT RAIN  41  36  83 E5        30.00F
$$

COZ041-046-047-076>085-087-088-282300-
...PIKES PEAK/PALMER DIVIDE AND SOUTHERN FOOTHILLS...

CITY           SKY/WX    TMP DP  RH WIND       PRES   REMARKS
COLO. SPRINGS  FLURRIES  37  32  82 S13       29.97S
A. F. ACADEMY  CLOUDY    37  32  81 S14       29.95F
SCHRIEVER AFB  NOT AVBL
ELLICOTT       NOT AVBL
FALCON         FLURRIES  36  31  85 S8        29.96F
FORT CARSON    CLOUDY    37  35  92 S7        29.95F
LIMON          CLOUDY    41  33  73 E8        29.98S
MONUMENT HILL  CLOUDY    32  30  93 S13       29.96R WCI  22
TRINIDAD       CLOUDY    54  34  46 E23       29.84F
$$

COZ042>045-048>051-090-091-282300-
...NORTHEAST COLORADO...

CITY           SKY/WX    TMP DP  RH WIND       PRES   REMARKS
GREELEY ARPT   CLOUDY    41  34  75 SE9       30.00F
AKRON          CLOUDY    39  33  79 CALM      30.00S
BURLINGTON     CLOUDY    48  32  53 E5        29.99S
WRAY           NOT AVBL
STERLING       CLOUDY    41  34  75 CALM      30.01S
HOLYOKE        NOT AVBL
FORT MORGAN    CLOUDY    40  32  74 E5        30.01F
$$

COZ086-089-092>099-282300-
...SOUTHEAST COLORADO...

CITY           SKY/WX    TMP DP  RH WIND       PRES   REMARKS
PUEBLO         CLOUDY    49  30  48 NE6       29.94F
LA JUNTA       FAIR      54  31  41 SE18G28   29.94S
LAMAR          CLOUDY    54  32  43 E8G20     29.95S
SPRINGFIELD      N/A     54  35  48 E12G20    29.92F
$$




USA.gov is the U.S. government's official web portal to all federal, state and local government web resources and services.